Regional Weather Roundup
Issued by NWS Green Bay, WI

Home | Current Version | Previous Version | Graphics & Text | Print | Product List | Glossary Off
Versions: 1 2 3 4 5 6 7 8 9 10 11 12 13 14 15 16 17 18 19 20 21 22 23 24 25 26 27 28 29 30 31 32 33 34 35 36 37 38 39 40 41 42 43 44 45 46 47 48 49 50

000
ASUS43 KGRB 270311
RWRGRB

NORTH-CENTRAL AND NORTHEAST WISCONSIN REGIONAL WEATHER ROUNDUP
NATIONAL WEATHER SERVICE GREEN BAY WI
1000 PM CDT SUN MAR 26 2017

WIZ005-009-010>012-018-019-270400-
NORTH CENTRAL WISCONSIN

CITY           SKY/WX    TMP DP  RH WIND       PRES   REMARKS
IRONWOOD       FOG       32  30  93 NW3       29.93S VSB 3/4
MANITOWISH WTR CLOUDY    32  32 100 N5        29.89S FOG
ARBOR VITAE    CLOUDY    37  36  96 N5        29.87F FOG
EAGLE RIVER    LGT RAIN  35  35 100 N5        29.87F
LAND O LAKES   CLOUDY    34  34 100 N5        29.89F
RHINELANDER    CLOUDY    38  37  97 VRB3      29.87F
PHILLIPS       CLOUDY    34  34 100 N3        29.89S FOG
ANTIGO         RAIN      36  36 100 CALM      29.86F
TOMAHAWK       CLOUDY    36  35  96 N3        29.88F FOG
MERRILL        CLOUDY    37  37 100 CALM      29.88S FOG
$$

WIZ013-073-270400-
NORTHEAST WISCONSIN

CITY           SKY/WX    TMP DP  RH WIND       PRES   REMARKS
IRON MOUNTAIN  LGT RAIN  36  33  89 CALM      29.86S FOG
MARINETTE        N/A    N/A N/A N/A MISG        N/A
OCONTO         CLOUDY    36  35  97 CALM      29.89S
$$

WIZ017-030-035>037-045-270400-
CENTRAL WISCONSIN

CITY           SKY/WX    TMP DP  RH WIND       PRES   REMARKS
MEDFORD        CLOUDY    37  37  97 N5        29.87F
WAUSAU         CLOUDY    38  38 100 NW3       29.86F
MOSINEE        DRIZZLE   37  37 100 VRB3      29.88F
MARSHFIELD     CLOUDY    38  37  97 CALM      29.87S FOG
WISC RAPIDS    LGT RAIN  39  39 100 CALM      29.89F FOG
STEVENS POINT  LGT RAIN  36  36 100 CALM      29.88F
WAUPACA        LGT RAIN  40  39  96 CALM      29.89S
SHAWANO        DRIZZLE   38  37  93 CALM      29.89S
CLINTONVILLE   LGT RAIN  37  36  93 N3        29.89S
WAUTOMA        LGT RAIN  39  38  96 CALM      29.89S
$$

WIZ038-039-048-051-270400-
FOX VALLEY

CITY           SKY/WX    TMP DP  RH WIND       PRES   REMARKS
NWS GREEN BAY  FOG       37  37 100 NE3       29.88F VSB 1
APPLETON       DRIZZLE   37  37 100 N6        29.87S
OSHKOSH        CLOUDY    39  37  92 N8        29.87S
FOND DU LAC    LGT RAIN  39  37  92 N5        29.87F FOG
$$

WIZ022-050-052-270400-
EAST CENTRAL WISCONSIN

CITY           SKY/WX    TMP DP  RH WIND       PRES   REMARKS
EPHRAIM        FOG       32  32 100 N8        29.86S VSB 1/4
WASHINGTON ISL FOG       33  33  99 N7        29.87S VSB 1
STURGEON BAY   MIX PCPN  34  33  96 N10       29.88S FOG
MANITOWOC      LGT RAIN  38  37  97 NW9       29.88S
SHEBOYGAN      LGT RAIN  41  39  93 N5        29.86S
$$

LMZ563-521-522-541>543-270400-
LAKESHORE

STATION/POSITION TIME  TEMP    WIND        PRES    VSBY  WAVE
                       AIR SEA DIR/SP/G                  HT/PER
                 (UTC) (F)     (DEG/KT/KT) (MB)    (MI)  (FT/S)
SHEBOYGAN LKSHOR 0300   41     330/  5/  5 1011.6S
KEWAUNEE LKSHORE 0248   36     320/  4/  9 1011.2R
NORTHPORT PIER   0240   33     330/  9/ 10 1011.9S
CHAMBERS ISLAND  0240   33     350/  6/  7 1011.9S
MENOMINEE LKSHOR 0248   34     320/  6/  6 1011.1F
$$




USA.gov is the U.S. government's official web portal to all federal, state and local government web resources and services.